Time,TemperatureF,DewpointF,PressureIn,WindDirection,WindDirectionDegrees,WindSpeedMPH,WindSpeedGustMPH,Humidity,HourlyPrecipIn,Conditions,Clouds,dailyrainin,SoftwareType,DateUTC
2013-01-30 00:00:00,28.3,15.4,30.11,NNE,13,7.0,9.0,58,0.00,,,0.00,LWC V2.11 B50,2013-01-30 07:00:00,
2013-01-30 00:05:00,28.3,15.4,30.11,WNW,290,4.0,8.0,58,0.00,,,0.00,LWC V2.11 B50,2013-01-30 07:05:00,
2013-01-30 00:10:00,28.3,15.8,30.11,WNW,283,2.0,14.0,59,0.00,,,0.00,LWC V2.11 B50,2013-01-30 07:10:00,
2013-01-30 00:15:00,28.3,15.8,30.11,West,278,6.0,17.0,59,0.00,,,0.00,LWC V2.11 B50,2013-01-30 07:15:00,
2013-01-30 00:20:00,28.3,15.8,30.11,WNW,302,9.0,9.0,59,0.00,,,0.00,LWC V2.11 B50,2013-01-30 07:20:00,
2013-01-30 00:25:00,28.3,15.8,30.11,North,355,12.0,14.0,59,0.00,,,0.00,LWC V2.11 B50,2013-01-30 07:25:00,
2013-01-30 00:30:00,28.2,15.7,30.11,West,275,4.0,20.0,59,0.00,,,0.00,LWC V2.11 B50,2013-01-30 07:30:00,
2013-01-30 00:35:00,28.1,15.6,30.11,West,265,4.0,13.0,59,0.00,,,0.00,LWC V2.11 B50,2013-01-30 07:35:00,
2013-01-30 00:40:00,28.1,16.0,30.11,NW,315,8.0,16.0,60,0.00,,,0.00,LWC V2.11 B50,2013-01-30 07:40:00,
2013-01-30 00:45:00,28.0,15.9,30.11,WNW,303,10.0,15.0,60,0.00,,,0.00,LWC V2.11 B50,2013-01-30 07:45:00,
2013-01-30 00:50:00,27.9,15.8,30.12,West,265,16.0,16.0,60,0.00,,,0.00,LWC V2.11 B50,2013-01-30 07:50:00,
2013-01-30 00:55:00,28.0,15.9,30.12,WNW,290,14.0,19.0,60,0.00,,,0.00,LWC V2.11 B50,2013-01-30 07:55:00,
2013-01-30 01:00:00,27.9,15.8,30.13,WNW,296,13.0,16.0,60,0.00,,,0.00,LWC V2.11 B50,2013-01-30 08:00:00,
2013-01-30 01:05:00,27.9,15.8,30.13,NW,305,17.0,22.0,60,0.00,,,0.00,LWC V2.11 B50,2013-01-30 08:05:00,
2013-01-30 01:10:00,28.0,15.9,30.13,NW,323,6.0,15.0,60,0.00,,,0.00,LWC V2.11 B50,2013-01-30 08:10:00,
2013-01-30 01:15:00,28.0,15.5,30.14,NW,309,15.0,19.0,59,0.00,,,0.00,LWC V2.11 B50,2013-01-30 08:15:00,
2013-01-30 01:20:00,28.0,15.2,30.15,NNW,346,7.0,20.0,58,0.00,,,0.00,LWC V2.11 B50,2013-01-30 08:20:00,
2013-01-30 01:25:00,28.0,15.2,30.15,NW,313,6.0,16.0,58,0.00,,,0.00,LWC V2.11 B50,2013-01-30 08:25:00,
2013-01-30 01:30:00,27.9,15.1,30.16,NW,325,8.0,15.0,58,0.00,,,0.00,LWC V2.11 B50,2013-01-30 08:30:00,
2013-01-30 01:35:00,27.8,15.4,30.16,NW,325,9.0,13.0,59,0.00,,,0.00,LWC V2.11 B50,2013-01-30 08:35:00,
2013-01-30 01:40:00,27.6,15.2,30.16,NW,321,9.0,10.0,59,0.00,,,0.00,LWC V2.11 B50,2013-01-30 08:40:00,
2013-01-30 01:45:00,27.4,15.4,30.17,NNW,331,3.0,7.0,60,0.00,,,0.00,LWC V2.11 B50,2013-01-30 08:45:00,
2013-01-30 01:50:00,27.2,15.2,30.17,NW,320,5.0,7.0,60,0.00,,,0.00,LWC V2.11 B50,2013-01-30 08:50:00,
2013-01-30 01:55:00,27.0,15.4,30.18,West,263,11.0,11.0,61,0.00,,,0.00,LWC V2.11 B50,2013-01-30 08:55:00,
2013-01-30 02:00:00,26.9,15.6,30.18,West,278,4.0,10.0,62,0.00,,,0.00,LWC V2.11 B50,2013-01-30 09:00:00,
2013-01-30 02:05:00,26.9,15.6,30.19,NNW,327,10.0,11.0,62,0.00,,,0.00,LWC V2.11 B50,2013-01-30 09:05:00,
2013-01-30 02:10:00,26.9,15.6,30.19,WNW,299,6.0,11.0,62,0.00,,,0.00,LWC V2.11 B50,2013-01-30 09:10:00,
2013-01-30 02:15:00,26.9,15.6,30.19,NW,311,7.0,14.0,62,0.00,,,0.00,LWC V2.11 B50,2013-01-30 09:15:00,
2013-01-30 02:20:00,26.7,15.8,30.19,NW,313,5.0,15.0,63,0.00,,,0.00,LWC V2.11 B50,2013-01-30 09:20:00,
2013-01-30 02:25:00,26.7,15.5,30.20,NW,306,13.0,13.0,62,0.00,,,0.00,LWC V2.11 B50,2013-01-30 09:25:00,
2013-01-30 02:30:00,27.0,15.4,30.20,West,268,8.0,17.0,61,0.00,,,0.00,LWC V2.11 B50,2013-01-30 09:30:00,
2013-01-30 02:35:00,27.1,15.1,30.20,NW,315,7.0,19.0,60,0.00,,,0.00,LWC V2.11 B50,2013-01-30 09:35:00,
2013-01-30 02:40:00,27.2,14.8,30.20,NW,304,5.0,13.0,59,0.00,,,0.00,LWC V2.11 B50,2013-01-30 09:40:00,
2013-01-30 02:45:00,27.2,15.2,30.20,NNW,327,13.0,14.0,60,0.00,,,0.00,LWC V2.11 B50,2013-01-30 09:45:00,
2013-01-30 02:50:00,27.1,15.1,30.21,NW,310,7.0,10.0,60,0.00,,,0.00,LWC V2.11 B50,2013-01-30 09:50:00,
2013-01-30 02:55:00,27.0,15.4,30.20,WNW,292,6.0,14.0,61,0.00,,,0.00,LWC V2.11 B50,2013-01-30 09:55:00,
2013-01-30 03:00:00,26.8,15.2,30.21,WNW,293,9.0,14.0,61,0.00,,,0.00,LWC V2.11 B50,2013-01-30 10:00:00,
2013-01-30 03:05:00,26.7,14.7,30.21,NW,319,13.0,18.0,60,0.00,,,0.00,LWC V2.11 B50,2013-01-30 10:05:00,
2013-01-30 03:10:00,26.6,14.6,30.21,NNW,348,4.0,11.0,60,0.00,,,0.00,LWC V2.11 B50,2013-01-30 10:10:00,
2013-01-30 03:15:00,26.5,14.5,30.20,NW,315,9.0,11.0,60,0.00,,,0.00,LWC V2.11 B50,2013-01-30 10:15:00,
2013-01-30 03:20:00,26.4,14.4,30.21,WNW,290,9.0,15.0,60,0.00,,,0.00,LWC V2.11 B50,2013-01-30 10:20:00,
2013-01-30 03:25:00,26.3,14.3,30.21,NNE,28,4.0,11.0,60,0.00,,,0.00,LWC V2.11 B50,2013-01-30 10:25:00,
2013-01-30 03:30:00,26.2,14.2,30.21,West,279,6.0,7.0,60,0.00,,,0.00,LWC V2.11 B50,2013-01-30 10:30:00,
2013-01-30 03:35:00,26.0,14.4,30.22,NNW,343,2.0,5.0,61,0.00,,,0.00,LWC V2.11 B50,2013-01-30 10:35:00,
2013-01-30 03:40:00,25.8,14.2,30.22,ENE,59,1.0,6.0,61,0.00,,,0.00,LWC V2.11 B50,2013-01-30 10:40:00,
2013-01-30 03:45:00,25.7,14.5,30.22,NNW,345,1.0,2.0,62,0.00,,,0.00,LWC V2.11 B50,2013-01-30 10:45:00,
2013-01-30 03:50:00,25.5,14.3,30.22,North,0,0.0,2.0,62,0.00,,,0.00,LWC V2.11 B50,2013-01-30 10:50:00,
2013-01-30 03:55:00,25.3,14.5,30.22,North,11,1.0,2.0,63,0.00,,,0.00,LWC V2.11 B50,2013-01-30 10:55:00,
2013-01-30 04:00:00,25.1,14.7,30.22,NNE,26,0.0,4.0,64,0.00,,,0.00,LWC V2.11 B50,2013-01-30 11:00:00,
2013-01-30 04:05:00,24.9,14.5,30.23,ENE,67,0.0,4.0,64,0.00,,,0.00,LWC V2.11 B50,2013-01-30 11:05:00,
2013-01-30 04:10:00,24.7,14.6,30.23,NE,36,0.0,4.0,65,0.00,,,0.00,LWC V2.11 B50,2013-01-30 11:10:00,
2013-01-30 04:15:00,24.4,14.4,30.24,NNE,13,1.0,3.0,65,0.00,,,0.00,LWC V2.11 B50,2013-01-30 11:15:00,
2013-01-30 04:20:00,24.1,14.4,30.24,WSW,249,0.0,2.0,66,0.00,,,0.00,LWC V2.11 B50,2013-01-30 11:20:00,
2013-01-30 04:25:00,24.0,14.7,30.24,West,267,1.0,5.0,67,0.00,,,0.00,LWC V2.11 B50,2013-01-30 11:25:00,
2013-01-30 04:30:00,24.0,14.7,30.24,North,5,0.0,7.0,67,0.00,,,0.00,LWC V2.11 B50,2013-01-30 11:30:00,
2013-01-30 04:35:00,24.0,14.7,30.24,North,0,0.0,1.0,67,0.00,,,0.00,LWC V2.11 B50,2013-01-30 11:35:00,
2013-01-30 04:40:00,24.0,14.7,30.25,NNW,342,0.0,0.0,67,0.00,,,0.00,LWC V2.11 B50,2013-01-30 11:40:00,
2013-01-30 04:45:00,23.8,14.5,30.25,NNW,347,1.0,2.0,67,0.00,,,0.00,LWC V2.11 B50,2013-01-30 11:45:00,
2013-01-30 04:50:00,23.7,14.7,30.25,NNW,330,1.0,2.0,68,0.00,,,0.00,LWC V2.11 B50,2013-01-30 11:50:00,
2013-01-30 04:55:00,23.6,14.6,30.25,North,349,1.0,4.0,68,0.00,,,0.00,LWC V2.11 B50,2013-01-30 11:55:00,
2013-01-30 05:00:00,24.2,14.5,30.25,NNW,336,4.0,9.0,66,0.00,,,0.00,LWC V2.11 B50,2013-01-30 12:00:00,
2013-01-30 05:05:00,24.7,14.6,30.25,NNE,19,5.0,14.0,65,0.00,,,0.00,LWC V2.11 B50,2013-01-30 12:05:00,
2013-01-30 05:10:00,24.8,14.7,30.25,NW,314,3.0,6.0,65,0.00,,,0.00,LWC V2.11 B50,2013-01-30 12:10:00,
2013-01-30 05:15:00,24.5,14.4,30.25,WNW,286,1.0,4.0,65,0.00,,,0.00,LWC V2.11 B50,2013-01-30 12:15:00,
2013-01-30 05:20:00,23.5,13.8,30.26,West,271,6.0,8.0,66,0.00,,,0.00,LWC V2.11 B50,2013-01-30 12:20:00,
2013-01-30 05:25:00,23.3,14.0,30.26,NW,313,1.0,6.0,67,0.00,,,0.00,LWC V2.11 B50,2013-01-30 12:25:00,
2013-01-30 05:30:00,23.3,14.0,30.26,NW,309,1.0,10.0,67,0.00,,,0.00,LWC V2.11 B50,2013-01-30 12:30:00,
2013-01-30 05:35:00,23.0,13.7,30.26,WNW,290,3.0,6.0,67,0.00,,,0.00,LWC V2.11 B50,2013-01-30 12:35:00,
2013-01-30 05:40:00,23.0,13.7,30.26,WNW,298,2.0,11.0,67,0.00,,,0.00,LWC V2.11 B50,2013-01-30 12:40:00,
2013-01-30 05:45:00,23.1,13.8,30.26,WNW,294,6.0,9.0,67,0.00,,,0.00,LWC V2.11 B50,2013-01-30 12:45:00,
2013-01-30 05:50:00,23.3,13.6,30.26,WNW,302,6.0,8.0,66,0.00,,,0.00,LWC V2.11 B50,2013-01-30 12:50:00,
2013-01-30 05:55:00,23.5,13.8,30.26,NW,306,7.0,11.0,66,0.00,,,0.00,LWC V2.11 B50,2013-01-30 12:55:00,
2013-01-30 06:00:00,23.4,13.4,30.27,NW,306,2.0,6.0,65,0.00,,,0.00,LWC V2.11 B50,2013-01-30 13:00:00,
2013-01-30 06:05:00,22.8,12.8,30.26,WNW,297,1.0,8.0,65,0.00,,,0.00,LWC V2.11 B50,2013-01-30 13:05:00,
2013-01-30 06:10:00,22.5,12.5,30.27,NNW,333,5.0,8.0,65,0.00,,,0.00,LWC V2.11 B50,2013-01-30 13:10:00,
2013-01-30 06:15:00,22.4,12.4,30.27,WNW,295,0.0,3.0,65,0.00,,,0.00,LWC V2.11 B50,2013-01-30 13:15:00,
2013-01-30 06:20:00,21.8,11.9,30.28,WNW,293,1.0,2.0,65,0.00,,,0.00,LWC V2.11 B50,2013-01-30 13:20:00,
2013-01-30 06:25:00,20.9,11.4,30.28,WNW,296,2.0,5.0,66,0.00,,,0.00,LWC V2.11 B50,2013-01-30 13:25:00,
2013-01-30 06:30:00,20.5,11.0,30.29,NW,307,0.0,1.0,66,0.00,,,0.00,LWC V2.11 B50,2013-01-30 13:30:00,
2013-01-30 06:35:00,20.2,11.0,30.29,NNW,334,0.0,1.0,67,0.00,,,0.00,LWC V2.11 B50,2013-01-30 13:35:00,
2013-01-30 06:40:00,19.9,11.4,30.29,NNW,334,0.0,0.0,69,0.00,,,0.00,LWC V2.11 B50,2013-01-30 13:40:00,
2013-01-30 06:45:00,19.7,11.2,30.29,NNW,334,0.0,0.0,69,0.00,,,0.00,LWC V2.11 B50,2013-01-30 13:45:00,
2013-01-30 06:50:00,19.7,11.5,30.30,NNW,331,0.0,1.0,70,0.00,,,0.00,LWC V2.11 B50,2013-01-30 13:50:00,
2013-01-30 06:55:00,20.3,12.1,30.31,NW,311,2.0,4.0,70,0.00,,,0.00,LWC V2.11 B50,2013-01-30 13:55:00,
2013-01-30 07:00:00,21.6,12.4,30.31,NW,305,1.0,4.0,67,0.00,,,0.00,LWC V2.11 B50,2013-01-30 14:00:00,
2013-01-30 07:05:00,22.1,12.2,30.31,WNW,300,0.0,2.0,65,0.00,,,0.00,LWC V2.11 B50,2013-01-30 14:05:00,
2013-01-30 07:10:00,22.7,12.4,30.31,NW,326,2.0,3.0,64,0.00,,,0.00,LWC V2.11 B50,2013-01-30 14:10:00,
2013-01-30 07:15:00,22.8,12.1,30.32,NW,308,1.0,2.0,63,0.00,,,0.00,LWC V2.11 B50,2013-01-30 14:15:00,
2013-01-30 07:20:00,22.5,11.8,30.32,WNW,294,2.0,4.0,63,0.00,,,0.00,LWC V2.11 B50,2013-01-30 14:20:00,
2013-01-30 07:25:00,22.3,12.0,30.32,NW,309,3.0,4.0,64,0.00,,,0.00,LWC V2.11 B50,2013-01-30 14:25:00,
2013-01-30 07:30:00,22.2,11.9,30.32,NW,316,2.0,4.0,64,0.00,,,0.00,LWC V2.11 B50,2013-01-30 14:30:00,
2013-01-30 07:35:00,22.2,12.3,30.33,NW,313,0.0,3.0,65,0.00,,,0.00,LWC V2.11 B50,2013-01-30 14:35:00,
2013-01-30 07:40:00,22.5,12.5,30.33,NW,308,1.0,3.0,65,0.00,,,0.00,LWC V2.11 B50,2013-01-30 14:40:00,
2013-01-30 07:45:00,22.8,12.5,30.34,WNW,301,0.0,1.0,64,0.00,,,0.00,LWC V2.11 B50,2013-01-30 14:45:00,
2013-01-30 07:50:00,23.0,12.7,30.34,WNW,301,0.0,0.0,64,0.00,,,0.00,LWC V2.11 B50,2013-01-30 14:50:00,
2013-01-30 07:55:00,23.4,13.4,30.34,WNW,301,0.0,1.0,65,0.00,,,0.00,LWC V2.11 B50,2013-01-30 14:55:00,
2013-01-30 08:00:00,24.0,13.6,30.34,NW,304,2.0,2.0,64,0.00,,,0.00,LWC V2.11 B50,2013-01-30 15:00:00,
2013-01-30 08:05:00,24.7,13.6,30.34,NW,309,0.0,2.0,62,0.00,,,0.00,LWC V2.11 B50,2013-01-30 15:05:00,
2013-01-30 08:10:00,25.2,14.0,30.34,NW,309,0.0,2.0,62,0.00,,,0.00,LWC V2.11 B50,2013-01-30 15:10:00,
2013-01-30 08:15:00,25.7,14.1,30.34,North,355,0.0,2.0,61,0.00,,,0.00,LWC V2.11 B50,2013-01-30 15:15:00,
2013-01-30 08:20:00,26.2,14.6,30.35,NNW,347,0.0,1.0,61,0.00,,,0.00,LWC V2.11 B50,2013-01-30 15:20:00,
2013-01-30 08:25:00,26.6,14.6,30.35,NW,311,0.0,0.0,60,0.00,,,0.00,LWC V2.11 B50,2013-01-30 15:25:00,
2013-01-30 08:30:00,27.0,15.0,30.35,NNW,348,0.0,0.0,60,0.00,,,0.00,LWC V2.11 B50,2013-01-30 15:30:00,
2013-01-30 08:35:00,27.5,15.1,30.36,NNW,330,0.0,1.0,59,0.00,,,0.00,LWC V2.11 B50,2013-01-30 15:35:00,
2013-01-30 08:40:00,27.9,15.5,30.36,NW,318,2.0,2.0,59,0.00,,,0.00,LWC V2.11 B50,2013-01-30 15:40:00,
2013-01-30 08:45:00,28.3,15.4,30.36,NW,322,0.0,1.0,58,0.00,,,0.00,LWC V2.11 B50,2013-01-30 15:45:00,
2013-01-30 08:50:00,28.6,15.3,30.36,NW,304,0.0,1.0,57,0.00,,,0.00,LWC V2.11 B50,2013-01-30 15:50:00,
2013-01-30 08:55:00,28.9,15.6,30.36,NW,315,0.0,0.0,57,0.00,,,0.00,LWC V2.11 B50,2013-01-30 15:55:00,
2013-01-30 09:00:00,29.3,15.6,30.37,NNE,15,0.0,0.0,56,0.00,,,0.00,LWC V2.11 B50,2013-01-30 16:00:00,
2013-01-30 09:05:00,29.8,16.0,30.37,NNE,32,0.0,1.0,56,0.00,,,0.00,LWC V2.11 B50,2013-01-30 16:05:00,
2013-01-30 09:10:00,30.7,16.0,30.37,East,89,0.0,0.0,54,0.00,,,0.00,LWC V2.11 B50,2013-01-30 16:10:00,
2013-01-30 09:15:00,31.5,15.9,30.37,NE,39,0.0,1.0,52,0.00,,,0.00,LWC V2.11 B50,2013-01-30 16:15:00,
2013-01-30 09:20:00,31.9,15.4,30.37,NE,38,0.0,1.0,50,0.00,,,0.00,LWC V2.11 B50,2013-01-30 16:20:00,
2013-01-30 09:25:00,32.2,15.7,30.38,NNE,17,0.0,1.0,50,0.00,,,0.00,LWC V2.11 B50,2013-01-30 16:25:00,
2013-01-30 09:30:00,32.7,15.7,30.37,NW,325,0.0,0.0,49,0.00,,,0.00,LWC V2.11 B50,2013-01-30 16:30:00,
2013-01-30 09:35:00,33.3,15.8,30.37,NW,313,2.0,3.0,48,0.00,,,0.00,LWC V2.11 B50,2013-01-30 16:35:00,
2013-01-30 09:40:00,33.9,15.8,30.38,WSW,247,0.0,1.0,47,0.00,,,0.00,LWC V2.11 B50,2013-01-30 16:40:00,
2013-01-30 09:45:00,34.5,15.4,30.38,NW,321,0.0,1.0,45,0.00,,,0.00,LWC V2.11 B50,2013-01-30 16:45:00,
2013-01-30 09:50:00,34.6,14.4,30.38,NW,312,0.0,4.0,43,0.00,,,0.00,LWC V2.11 B50,2013-01-30 16:50:00,
2013-01-30 09:55:00,34.3,14.2,30.38,NW,318,2.0,5.0,43,0.00,,,0.00,LWC V2.11 B50,2013-01-30 16:55:00,
2013-01-30 10:00:00,34.4,14.2,30.38,NW,311,0.0,3.0,43,0.00,,,0.00,LWC V2.11 B50,2013-01-30 17:00:00,
2013-01-30 10:05:00,34.8,14.6,30.39,NNE,30,0.0,0.0,43,0.00,,,0.00,LWC V2.11 B50,2013-01-30 17:05:00,
2013-01-30 10:10:00,35.0,13.7,30.39,NE,46,0.0,1.0,41,0.00,,,0.00,LWC V2.11 B50,2013-01-30 17:10:00,
2013-01-30 10:15:00,35.3,14.0,30.39,NE,43,0.0,2.0,41,0.00,,,0.00,LWC V2.11 B50,2013-01-30 17:15:00,
2013-01-30 10:20:00,35.5,13.6,30.39,NW,305,0.0,0.0,40,0.00,,,0.00,LWC V2.11 B50,2013-01-30 17:20:00,
2013-01-30 10:25:00,36.2,13.7,30.39,NNW,334,0.0,3.0,39,0.00,,,0.00,LWC V2.11 B50,2013-01-30 17:25:00,
2013-01-30 10:30:00,36.5,13.3,30.39,ENE,65,2.0,5.0,38,0.00,,,0.00,LWC V2.11 B50,2013-01-30 17:30:00,
2013-01-30 10:35:00,36.6,13.4,30.38,NE,37,3.0,5.0,38,0.00,,,0.00,LWC V2.11 B50,2013-01-30 17:35:00,
2013-01-30 10:40:00,36.8,13.0,30.39,NNE,30,2.0,4.0,37,0.00,,,0.00,LWC V2.11 B50,2013-01-30 17:40:00,
2013-01-30 10:45:00,37.1,13.3,30.38,ENE,63,4.0,7.0,37,0.00,,,0.00,LWC V2.11 B50,2013-01-30 17:45:00,
2013-01-30 10:50:00,37.5,11.0,30.38,ENE,78,1.0,9.0,33,0.00,,,0.00,LWC V2.11 B50,2013-01-30 17:50:00,
2013-01-30 10:55:00,38.0,9.4,30.38,West,265,2.0,10.0,30,0.00,,,0.00,LWC V2.11 B50,2013-01-30 17:55:00,
2013-01-30 11:00:00,38.3,8.9,30.38,ESE,116,2.0,6.0,29,0.00,,,0.00,LWC V2.11 B50,2013-01-30 18:00:00,
2013-01-30 11:05:00,38.7,9.2,30.37,WNW,299,6.0,8.0,29,0.00,,,0.00,LWC V2.11 B50,2013-01-30 18:05:00,
2013-01-30 11:10:00,38.9,8.6,30.37,WNW,294,7.0,15.0,28,0.00,,,0.00,LWC V2.11 B50,2013-01-30 18:10:00,
2013-01-30 11:15:00,39.1,9.6,30.37,NE,55,2.0,9.0,29,0.00,,,0.00,LWC V2.11 B50,2013-01-30 18:15:00,
2013-01-30 11:20:00,39.5,9.9,30.37,North,5,4.0,9.0,29,0.00,,,0.00,LWC V2.11 B50,2013-01-30 18:20:00,
2013-01-30 11:25:00,39.7,9.3,30.37,NW,315,4.0,5.0,28,0.00,,,0.00,LWC V2.11 B50,2013-01-30 18:25:00,
2013-01-30 11:30:00,39.8,9.4,30.37,NE,38,4.0,10.0,28,0.00,,,0.00,LWC V2.11 B50,2013-01-30 18:30:00,
2013-01-30 11:35:00,40.0,10.3,30.36,NNE,15,2.0,5.0,29,0.00,,,0.00,LWC V2.11 B50,2013-01-30 18:35:00,
2013-01-30 11:40:00,40.4,9.9,30.37,North,355,14.0,14.0,28,0.00,,,0.00,LWC V2.11 B50,2013-01-30 18:40:00,
2013-01-30 11:45:00,40.0,10.3,30.36,SSE,156,1.0,6.0,29,0.00,,,0.00,LWC V2.11 B50,2013-01-30 18:45:00,
2013-01-30 11:50:00,40.3,10.6,30.36,NNE,14,9.0,9.0,29,0.00,,,0.00,LWC V2.11 B50,2013-01-30 18:50:00,
2013-01-30 11:55:00,40.4,10.7,30.35,North,9,0.0,8.0,29,0.00,,,0.00,LWC V2.11 B50,2013-01-30 18:55:00,
2013-01-30 12:00:00,40.8,11.0,30.35,SSE,157,4.0,8.0,29,0.00,,,0.00,LWC V2.11 B50,2013-01-30 19:00:00,
2013-01-30 12:05:00,41.0,11.2,30.35,NE,44,8.0,8.0,29,0.00,,,0.00,LWC V2.11 B50,2013-01-30 19:05:00,
2013-01-30 12:10:00,40.9,11.1,30.35,WNW,289,1.0,9.0,29,0.00,,,0.00,LWC V2.11 B50,2013-01-30 19:10:00,
2013-01-30 12:15:00,41.0,11.2,30.35,NNW,342,0.0,9.0,29,0.00,,,0.00,LWC V2.11 B50,2013-01-30 19:15:00,
2013-01-30 12:20:00,40.9,11.1,30.35,WNW,282,4.0,9.0,29,0.00,,,0.00,LWC V2.11 B50,2013-01-30 19:20:00,
2013-01-30 12:25:00,40.9,11.1,30.35,ENE,60,4.0,12.0,29,0.00,,,0.00,LWC V2.11 B50,2013-01-30 19:25:00,
2013-01-30 12:30:00,40.7,11.7,30.34,North,0,3.0,13.0,30,0.00,,,0.00,LWC V2.11 B50,2013-01-30 19:30:00,
2013-01-30 12:35:00,41.1,12.1,30.34,West,278,5.0,9.0,30,0.00,,,0.00,LWC V2.11 B50,2013-01-30 19:35:00,
2013-01-30 12:40:00,41.4,12.3,30.34,North,5,6.0,7.0,30,0.00,,,0.00,LWC V2.11 B50,2013-01-30 19:40:00,
2013-01-30 12:45:00,41.4,11.6,30.33,NNE,28,6.0,6.0,29,0.00,,,0.00,LWC V2.11 B50,2013-01-30 19:45:00,
2013-01-30 12:50:00,41.9,12.0,30.33,NW,313,4.0,12.0,29,0.00,,,0.00,LWC V2.11 B50,2013-01-30 19:50:00,
2013-01-30 12:55:00,41.8,11.9,30.32,North,0,6.0,7.0,29,0.00,,,0.00,LWC V2.11 B50,2013-01-30 19:55:00,
2013-01-30 13:00:00,41.6,10.9,30.32,North,9,1.0,11.0,28,0.00,,,0.00,LWC V2.11 B50,2013-01-30 20:00:00,
2013-01-30 13:05:00,42.0,11.3,30.32,North,349,8.0,9.0,28,0.00,,,0.00,LWC V2.11 B50,2013-01-30 20:05:00,
2013-01-30 13:10:00,42.2,11.5,30.32,WSW,258,5.0,8.0,28,0.00,,,0.00,LWC V2.11 B50,2013-01-30 20:10:00,
2013-01-30 13:15:00,42.2,11.5,30.32,North,355,9.0,17.0,28,0.00,,,0.00,LWC V2.11 B50,2013-01-30 20:15:00,
2013-01-30 13:20:00,41.5,11.6,30.32,NNW,336,6.0,10.0,29,0.00,,,0.00,LWC V2.11 B50,2013-01-30 20:20:00,
2013-01-30 13:25:00,41.5,11.6,30.31,SSE,153,3.0,8.0,29,0.00,,,0.00,LWC V2.11 B50,2013-01-30 20:25:00,
2013-01-30 13:30:00,41.8,11.9,30.31,SSW,209,2.0,7.0,29,0.00,,,0.00,LWC V2.11 B50,2013-01-30 20:30:00,
2013-01-30 13:35:00,42.1,12.2,30.31,East,96,2.0,12.0,29,0.00,,,0.00,LWC V2.11 B50,2013-01-30 20:35:00,
2013-01-30 13:40:00,41.8,11.9,30.31,NNW,339,9.0,13.0,29,0.00,,,0.00,LWC V2.11 B50,2013-01-30 20:40:00,
2013-01-30 13:45:00,41.6,12.5,30.31,NW,314,6.0,8.0,30,0.00,,,0.00,LWC V2.11 B50,2013-01-30 20:45:00,
2013-01-30 13:50:00,41.9,12.8,30.31,East,90,1.0,11.0,30,0.00,,,0.00,LWC V2.11 B50,2013-01-30 20:50:00,
2013-01-30 13:55:00,42.5,13.3,30.31,ENE,62,7.0,9.0,30,0.00,,,0.00,LWC V2.11 B50,2013-01-30 20:55:00,
2013-01-30 14:00:00,42.6,13.4,30.31,NNE,19,5.0,12.0,30,0.00,,,0.00,LWC V2.11 B50,2013-01-30 21:00:00,
2013-01-30 14:05:00,42.7,13.5,30.30,North,9,4.0,11.0,30,0.00,,,0.00,LWC V2.11 B50,2013-01-30 21:05:00,
2013-01-30 14:10:00,42.5,13.3,30.31,North,355,2.0,9.0,30,0.00,,,0.00,LWC V2.11 B50,2013-01-30 21:10:00,
2013-01-30 14:15:00,42.8,13.5,30.31,NE,36,4.0,8.0,30,0.00,,,0.00,LWC V2.11 B50,2013-01-30 21:15:00,
2013-01-30 14:20:00,42.8,13.5,30.31,NW,306,3.0,8.0,30,0.00,,,0.00,LWC V2.11 B50,2013-01-30 21:20:00,
2013-01-30 14:25:00,42.6,13.4,30.31,WSW,255,2.0,9.0,30,0.00,,,0.00,LWC V2.11 B50,2013-01-30 21:25:00,
2013-01-30 14:30:00,42.7,13.5,30.30,WNW,297,3.0,9.0,30,0.00,,,0.00,LWC V2.11 B50,2013-01-30 21:30:00,
2013-01-30 14:35:00,42.8,13.5,30.30,NE,40,5.0,9.0,30,0.00,,,0.00,LWC V2.11 B50,2013-01-30 21:35:00,
2013-01-30 14:40:00,42.7,14.2,30.30,NNE,13,3.0,11.0,31,0.00,,,0.00,LWC V2.11 B50,2013-01-30 21:40:00,
2013-01-30 14:45:00,42.7,14.2,30.30,East,84,3.0,7.0,31,0.00,,,0.00,LWC V2.11 B50,2013-01-30 21:45:00,
2013-01-30 14:50:00,42.6,14.1,30.30,NNW,348,15.0,15.0,31,0.00,,,0.00,LWC V2.11 B50,2013-01-30 21:50:00,
2013-01-30 14:55:00,42.5,14.7,30.30,NNW,340,10.0,11.0,32,0.00,,,0.00,LWC V2.11 B50,2013-01-30 21:55:00,
2013-01-30 15:00:00,42.5,14.7,30.30,NE,40,5.0,7.0,32,0.00,,,0.00,LWC V2.11 B50,2013-01-30 22:00:00,
2013-01-30 15:05:00,42.5,14.7,30.30,NW,306,10.0,10.0,32,0.00,,,0.00,LWC V2.11 B50,2013-01-30 22:05:00,
2013-01-30 15:10:00,42.4,14.7,30.30,NNE,16,5.0,5.0,32,0.00,,,0.00,LWC V2.11 B50,2013-01-30 22:10:00,
2013-01-30 15:15:00,42.5,14.7,30.29,SW,215,2.0,6.0,32,0.00,,,0.00,LWC V2.11 B50,2013-01-30 22:15:00,
2013-01-30 15:20:00,42.5,14.7,30.30,NW,326,2.0,7.0,32,0.00,,,0.00,LWC V2.11 B50,2013-01-30 22:20:00,
2013-01-30 15:25:00,42.5,14.7,30.30,WNW,284,6.0,6.0,32,0.00,,,0.00,LWC V2.11 B50,2013-01-30 22:25:00,
2013-01-30 15:30:00,42.3,15.3,30.29,WSW,248,0.0,10.0,33,0.00,,,0.00,LWC V2.11 B50,2013-01-30 22:30:00,
2013-01-30 15:35:00,42.5,15.4,30.30,WNW,302,7.0,14.0,33,0.00,,,0.00,LWC V2.11 B50,2013-01-30 22:35:00,
2013-01-30 15:40:00,42.4,15.4,30.30,NW,306,14.0,14.0,33,0.00,,,0.00,LWC V2.11 B50,2013-01-30 22:40:00,
2013-01-30 15:45:00,42.4,15.4,30.29,ENE,70,5.0,5.0,33,0.00,,,0.00,LWC V2.11 B50,2013-01-30 22:45:00,
2013-01-30 15:50:00,42.4,15.4,30.29,NNW,336,9.0,11.0,33,0.00,,,0.00,LWC V2.11 B50,2013-01-30 22:50:00,
2013-01-30 15:55:00,42.4,15.4,30.29,North,0,2.0,10.0,33,0.00,,,0.00,LWC V2.11 B50,2013-01-30 22:55:00,
2013-01-30 16:00:00,42.1,15.8,30.29,WNW,289,5.0,18.0,34,0.00,,,0.00,LWC V2.11 B50,2013-01-30 23:00:00,
2013-01-30 16:05:00,42.1,15.8,30.29,ENE,72,2.0,11.0,34,0.00,,,0.00,LWC V2.11 B50,2013-01-30 23:05:00,
2013-01-30 16:10:00,42.1,15.1,30.28,NE,47,1.0,9.0,33,0.00,,,0.00,LWC V2.11 B50,2013-01-30 23:10:00,
2013-01-30 16:15:00,42.1,15.1,30.28,South,189,1.0,7.0,33,0.00,,,0.00,LWC V2.11 B50,2013-01-30 23:15:00,
2013-01-30 16:20:00,42.2,15.2,30.28,NNW,346,2.0,11.0,33,0.00,,,0.00,LWC V2.11 B50,2013-01-30 23:20:00,
2013-01-30 16:25:00,42.1,15.1,30.28,ENE,74,1.0,4.0,33,0.00,,,0.00,LWC V2.11 B50,2013-01-30 23:25:00,
2013-01-30 16:30:00,42.1,15.1,30.28,SSE,158,1.0,8.0,33,0.00,,,0.00,LWC V2.11 B50,2013-01-30 23:30:00,
2013-01-30 16:35:00,42.0,15.0,30.28,WNW,295,4.0,6.0,33,0.00,,,0.00,LWC V2.11 B50,2013-01-30 23:35:00,
2013-01-30 16:40:00,42.1,15.1,30.28,South,190,1.0,7.0,33,0.00,,,0.00,LWC V2.11 B50,2013-01-30 23:40:00,
2013-01-30 16:45:00,42.0,15.0,30.28,WNW,283,6.0,6.0,33,0.00,,,0.00,LWC V2.11 B50,2013-01-30 23:45:00,
2013-01-30 16:50:00,42.0,15.0,30.29,NNW,346,0.0,2.0,33,0.00,,,0.00,LWC V2.11 B50,2013-01-30 23:50:00,
2013-01-30 16:55:00,41.9,14.9,30.29,ENE,64,3.0,10.0,33,0.00,,,0.00,LWC V2.11 B50,2013-01-30 23:55:00,
2013-01-30 17:00:00,41.8,14.8,30.29,NNE,20,0.0,6.0,33,0.00,,,0.00,LWC V2.11 B50,2013-01-31 00:00:00,
2013-01-30 17:05:00,41.6,15.3,30.29,ESE,123,2.0,4.0,34,0.00,,,0.00,LWC V2.11 B50,2013-01-31 00:05:00,
2013-01-30 17:10:00,41.4,15.2,30.29,NNW,327,1.0,8.0,34,0.00,,,0.00,LWC V2.11 B50,2013-01-31 00:10:00,
2013-01-30 17:15:00,41.2,15.0,30.29,WNW,293,2.0,3.0,34,0.00,,,0.00,LWC V2.11 B50,2013-01-31 00:15:00,
2013-01-30 17:20:00,41.0,15.5,30.29,NNE,20,1.0,4.0,35,0.00,,,0.00,LWC V2.11 B50,2013-01-31 00:20:00,
2013-01-30 17:25:00,40.8,15.9,30.30,WNW,302,1.0,1.0,36,0.00,,,0.00,LWC V2.11 B50,2013-01-31 00:25:00,
2013-01-30 17:30:00,40.7,15.8,30.30,NNW,342,4.0,6.0,36,0.00,,,0.00,LWC V2.11 B50,2013-01-31 00:30:00,
2013-01-30 17:35:00,40.5,15.7,30.30,North,349,3.0,6.0,36,0.00,,,0.00,LWC V2.11 B50,2013-01-31 00:35:00,
2013-01-30 17:40:00,40.3,16.1,30.30,NW,311,0.0,1.0,37,0.00,,,0.00,LWC V2.11 B50,2013-01-31 00:40:00,
2013-01-30 17:45:00,40.0,15.9,30.30,NW,315,1.0,4.0,37,0.00,,,0.00,LWC V2.11 B50,2013-01-31 00:45:00,
2013-01-30 17:50:00,39.7,16.2,30.30,North,351,0.0,3.0,38,0.00,,,0.00,LWC V2.11 B50,2013-01-31 00:50:00,
2013-01-30 17:55:00,39.5,16.0,30.30,NNW,342,0.0,2.0,38,0.00,,,0.00,LWC V2.11 B50,2013-01-31 00:55:00,
2013-01-30 18:00:00,39.2,15.8,30.30,NW,321,0.0,0.0,38,0.00,,,0.00,LWC V2.11 B50,2013-01-31 01:00:00,
2013-01-30 18:05:00,39.1,16.3,30.30,NW,305,0.0,2.0,39,0.00,,,0.00,LWC V2.11 B50,2013-01-31 01:05:00,
2013-01-30 18:10:00,39.0,16.2,30.31,NNW,327,0.0,2.0,39,0.00,,,0.00,LWC V2.11 B50,2013-01-31 01:10:00,
2013-01-30 18:15:00,38.9,16.1,30.31,NNW,335,0.0,0.0,39,0.00,,,0.00,LWC V2.11 B50,2013-01-31 01:15:00,
2013-01-30 18:20:00,38.7,15.9,30.31,NW,321,0.0,0.0,39,0.00,,,0.00,LWC V2.11 B50,2013-01-31 01:20:00,
2013-01-30 18:25:00,38.4,15.6,30.31,NW,321,0.0,0.0,39,0.00,,,0.00,LWC V2.11 B50,2013-01-31 01:25:00,
2013-01-30 18:30:00,38.0,15.9,30.32,NW,321,0.0,0.0,40,0.00,,,0.00,LWC V2.11 B50,2013-01-31 01:30:00,
2013-01-30 18:35:00,37.7,15.6,30.32,WSW,254,0.0,0.0,40,0.00,,,0.00,LWC V2.11 B50,2013-01-31 01:35:00,
2013-01-30 18:40:00,37.1,15.6,30.32,WSW,254,0.0,0.0,41,0.00,,,0.00,LWC V2.11 B50,2013-01-31 01:40:00,
2013-01-30 18:45:00,36.6,15.7,30.32,WSW,254,0.0,0.0,42,0.00,,,0.00,LWC V2.11 B50,2013-01-31 01:45:00,
2013-01-30 18:50:00,36.1,15.3,30.32,WSW,253,0.0,0.0,42,0.00,,,0.00,LWC V2.11 B50,2013-01-31 01:50:00,
2013-01-30 18:55:00,35.7,15.4,30.33,WSW,251,0.0,1.0,43,0.00,,,0.00,LWC V2.11 B50,2013-01-31 01:55:00,
2013-01-30 19:00:00,35.5,15.8,30.33,WSW,251,0.0,0.0,44,0.00,,,0.00,LWC V2.11 B50,2013-01-31 02:00:00,
2013-01-30 19:05:00,35.2,15.5,30.33,WSW,242,0.0,1.0,44,0.00,,,0.00,LWC V2.11 B50,2013-01-31 02:05:00,
2013-01-30 19:10:00,35.1,15.9,30.33,WSW,241,0.0,1.0,45,0.00,,,0.00,LWC V2.11 B50,2013-01-31 02:10:00,
2013-01-30 19:15:00,35.2,16.0,30.33,WSW,241,0.0,0.0,45,0.00,,,0.00,LWC V2.11 B50,2013-01-31 02:15:00,
2013-01-30 19:20:00,35.1,15.9,30.33,WSW,241,0.0,0.0,45,0.00,,,0.00,LWC V2.11 B50,2013-01-31 02:20:00,
2013-01-30 19:25:00,34.9,15.7,30.34,WSW,241,0.0,0.0,45,0.00,,,0.00,LWC V2.11 B50,2013-01-31 02:25:00,
2013-01-30 19:30:00,34.6,15.5,30.34,WSW,241,0.0,0.0,45,0.00,,,0.00,LWC V2.11 B50,2013-01-31 02:30:00,
2013-01-30 19:35:00,34.3,15.7,30.34,WSW,241,0.0,0.0,46,0.00,,,0.00,LWC V2.11 B50,2013-01-31 02:35:00,
2013-01-30 19:40:00,33.9,15.8,30.34,WSW,241,0.0,0.0,47,0.00,,,0.00,LWC V2.11 B50,2013-01-31 02:40:00,
2013-01-30 19:45:00,33.5,15.5,30.34,WSW,241,0.0,0.0,47,0.00,,,0.00,LWC V2.11 B50,2013-01-31 02:45:00,
2013-01-30 19:50:00,33.4,15.8,30.34,WSW,241,0.0,0.0,48,0.00,,,0.00,LWC V2.11 B50,2013-01-31 02:50:00,
2013-01-30 19:55:00,33.1,15.6,30.34,WSW,255,0.0,0.0,48,0.00,,,0.00,LWC V2.11 B50,2013-01-31 02:55:00,
2013-01-30 20:00:00,32.6,15.6,30.34,WSW,255,0.0,0.0,49,0.00,,,0.00,LWC V2.11 B50,2013-01-31 03:00:00,
2013-01-30 20:05:00,32.3,15.8,30.34,WSW,255,0.0,0.0,50,0.00,,,0.00,LWC V2.11 B50,2013-01-31 03:05:00,
2013-01-30 20:10:00,32.2,15.7,30.34,WSW,255,0.0,0.0,50,0.00,,,0.00,LWC V2.11 B50,2013-01-31 03:10:00,
2013-01-30 20:15:00,32.0,15.5,30.34,WSW,255,0.0,0.0,50,0.00,,,0.00,LWC V2.11 B50,2013-01-31 03:15:00,
2013-01-30 20:20:00,31.8,15.8,30.34,WSW,255,0.0,0.0,51,0.00,,,0.00,LWC V2.11 B50,2013-01-31 03:20:00,
2013-01-30 20:25:00,31.6,15.6,30.35,WSW,255,0.0,0.0,51,0.00,,,0.00,LWC V2.11 B50,2013-01-31 03:25:00,
2013-01-30 20:30:00,31.4,15.8,30.35,WSW,255,0.0,1.0,52,0.00,,,0.00,LWC V2.11 B50,2013-01-31 03:30:00,
2013-01-30 20:35:00,31.4,15.4,30.34,WSW,255,0.0,0.0,51,0.00,,,0.00,LWC V2.11 B50,2013-01-31 03:35:00,
2013-01-30 20:40:00,31.3,15.7,30.35,WSW,238,0.0,0.0,52,0.00,,,0.00,LWC V2.11 B50,2013-01-31 03:40:00,
2013-01-30 20:45:00,31.2,15.6,30.34,SSW,213,0.0,2.0,52,0.00,,,0.00,LWC V2.11 B50,2013-01-31 03:45:00,
2013-01-30 20:50:00,31.2,15.6,30.35,SSW,213,0.0,0.0,52,0.00,,,0.00,LWC V2.11 B50,2013-01-31 03:50:00,
2013-01-30 20:55:00,31.1,15.6,30.35,SSW,213,0.0,0.0,52,0.00,,,0.00,LWC V2.11 B50,2013-01-31 03:55:00,
2013-01-30 21:00:00,31.0,15.9,30.35,SSW,213,0.0,0.0,53,0.00,,,0.00,LWC V2.11 B50,2013-01-31 04:00:00,
2013-01-30 21:05:00,30.8,15.7,30.35,SSW,213,0.0,0.0,53,0.00,,,0.00,LWC V2.11 B50,2013-01-31 04:05:00,
2013-01-30 21:10:00,30.5,15.9,30.35,SSW,213,0.0,0.0,54,0.00,,,0.00,LWC V2.11 B50,2013-01-31 04:10:00,
2013-01-30 21:15:00,30.4,15.8,30.35,SSW,213,0.0,0.0,54,0.00,,,0.00,LWC V2.11 B50,2013-01-31 04:15:00,
2013-01-30 21:20:00,30.3,15.7,30.35,SSW,213,0.0,0.0,54,0.00,,,0.00,LWC V2.11 B50,2013-01-31 04:20:00,
2013-01-30 21:25:00,30.3,16.1,30.35,SSW,213,0.0,0.0,55,0.00,,,0.00,LWC V2.11 B50,2013-01-31 04:25:00,
2013-01-30 21:30:00,30.8,16.6,30.35,West,259,0.0,0.0,55,0.00,,,0.00,LWC V2.11 B50,2013-01-31 04:30:00,
2013-01-30 21:35:00,31.6,16.9,30.35,West,259,0.0,0.0,54,0.00,,,0.00,LWC V2.11 B50,2013-01-31 04:35:00,
2013-01-30 21:40:00,31.8,16.6,30.34,West,259,0.0,0.0,53,0.00,,,0.00,LWC V2.11 B50,2013-01-31 04:40:00,
2013-01-30 21:45:00,31.8,16.6,30.35,West,259,0.0,0.0,53,0.00,,,0.00,LWC V2.11 B50,2013-01-31 04:45:00,
2013-01-30 21:50:00,31.8,16.6,30.35,West,259,0.0,0.0,53,0.00,,,0.00,LWC V2.11 B50,2013-01-31 04:50:00,
2013-01-30 21:55:00,31.6,16.5,30.35,West,259,0.0,0.0,53,0.00,,,0.00,LWC V2.11 B50,2013-01-31 04:55:00,
2013-01-30 22:00:00,31.2,16.5,30.35,South,170,0.0,0.0,54,0.00,,,0.00,LWC V2.11 B50,2013-01-31 05:00:00,
2013-01-30 22:01:00,31.2,16.5,30.35,SSE,155,0.0,0.0,54,0.00,,,0.00,LWC V2.11 B50,2013-01-31 05:01:00,
2013-01-30 22:06:00,30.7,16.5,30.35,SSE,156,0.0,0.0,55,0.00,,,0.00,LWC V2.11 B50,2013-01-31 05:06:00,
2013-01-30 22:11:00,30.5,16.7,30.35,SSE,156,0.0,0.0,56,0.00,,,0.00,LWC V2.11 B50,2013-01-31 05:11:00,
2013-01-30 22:16:00,30.4,16.6,30.35,SW,235,0.0,0.0,56,0.00,,,0.00,LWC V2.11 B50,2013-01-31 05:16:00,
2013-01-30 22:21:00,30.4,16.6,30.35,WSW,240,0.0,0.0,56,0.00,,,0.00,LWC V2.11 B50,2013-01-31 05:21:00,
2013-01-30 22:26:00,30.2,16.8,30.35,WSW,240,0.0,0.0,57,0.00,,,0.00,LWC V2.11 B50,2013-01-31 05:26:00,
2013-01-30 22:31:00,30.2,16.8,30.35,WSW,240,0.0,0.0,57,0.00,,,0.00,LWC V2.11 B50,2013-01-31 05:31:00,
2013-01-30 22:36:00,30.2,16.8,30.35,WSW,240,0.0,0.0,57,0.00,,,0.00,LWC V2.11 B50,2013-01-31 05:36:00,
2013-01-30 22:41:00,30.4,17.0,30.35,WSW,240,0.0,0.0,57,0.00,,,0.00,LWC V2.11 B50,2013-01-31 05:41:00,
2013-01-30 22:46:00,30.5,17.1,30.36,WSW,248,0.0,0.0,57,0.00,,,0.00,LWC V2.11 B50,2013-01-31 05:46:00,
2013-01-30 22:51:00,30.5,17.1,30.35,NW,304,0.0,0.0,57,0.00,,,0.00,LWC V2.11 B50,2013-01-31 05:51:00,
2013-01-30 22:56:00,30.6,17.2,30.36,NW,309,0.0,3.0,57,0.00,,,0.00,LWC V2.11 B50,2013-01-31 05:56:00,
2013-01-30 23:01:00,30.5,17.1,30.36,NW,309,0.0,1.0,57,0.00,,,0.00,LWC V2.11 B50,2013-01-31 06:01:00,
2013-01-30 23:06:00,30.3,16.9,30.36,NW,309,0.0,0.0,57,0.00,,,0.00,LWC V2.11 B50,2013-01-31 06:06:00,
2013-01-30 23:11:00,30.1,17.1,30.36,NW,309,0.0,0.0,58,0.00,,,0.00,LWC V2.11 B50,2013-01-31 06:11:00,
2013-01-30 23:16:00,29.6,16.7,30.36,NW,309,0.0,0.0,58,0.00,,,0.00,LWC V2.11 B50,2013-01-31 06:16:00,
2013-01-30 23:21:00,29.1,16.6,30.36,NW,309,0.0,0.0,59,0.00,,,0.00,LWC V2.11 B50,2013-01-31 06:21:00,
2013-01-30 23:26:00,28.8,16.7,30.36,NW,309,0.0,0.0,60,0.00,,,0.00,LWC V2.11 B50,2013-01-31 06:26:00,
2013-01-30 23:31:00,28.4,16.3,30.36,NW,309,0.0,0.0,60,0.00,,,0.00,LWC V2.11 B50,2013-01-31 06:31:00,
2013-01-30 23:36:00,28.1,16.4,30.36,NW,309,0.0,0.0,61,0.00,,,0.00,LWC V2.11 B50,2013-01-31 06:36:00,
2013-01-30 23:41:00,28.1,16.8,30.36,NW,309,0.0,0.0,62,0.00,,,0.00,LWC V2.11 B50,2013-01-31 06:41:00,
2013-01-30 23:46:00,28.1,16.8,30.36,NW,309,0.0,0.0,62,0.00,,,0.00,LWC V2.11 B50,2013-01-31 06:46:00,
2013-01-30 23:51:00,27.8,16.5,30.37,NW,317,0.0,2.0,62,0.00,,,0.00,LWC V2.11 B50,2013-01-31 06:51:00,
2013-01-30 23:56:00,27.6,16.7,30.36,NNW,327,0.0,1.0,63,0.00,,,0.00,LWC V2.11 B50,2013-01-31 06:56:00,